User: anonymous
Location: Valdosta
(30.8330°N, 83.2790°W)
Time: 03:47:45
(UTC-04:00)
Language:

Oscar 19 - Orbit

View from above orbital plane
View from above orbital plane
View from above satellite
View from above satellite

Ground track
Ground track

The orbit data is extracted from the following two-line orbital elements,

1 20442U 90005G   14213.05533890  .00000095  00000-0  50949-4 0   187
2 20442 098.4786 150.0697 0012006 021.9417 338.2279 14.32572883281106
Epoch (UTC): 01 August 2014 01:19:41
Eccentricity: 0.0012006
inclination: 98.4786°
perigee height: 774 km
apogee height: 792 km
right ascension of ascending node: 150.0697°
argument of perigee: 21.9417°
revolutions per day: 14.32572883
mean anomaly at epoch: 338.2279°
orbit number at epoch: 28110

The dashed part of the orbit path shows where the satellite is in the earth's shadow,  

DLR